ONEWEB-0268 (48986 NORAD) Tracking and Keplerian Element Data

This shows tracking and keplerian element data for the satellite.

Feedback or suggestion? Click here.




ElementValue
Catalog48986
NameONEWEB-0268
Epoch Orbit362
Epoch Day210.91668981
Epoch Year2021
RAAN227.5138
Inclination87.4539
Eccentricity0.0007564
Argument of Perigee165.8434
Mean Anonmoly256.074
Mean Motion15.01622511
Decay Rate-0.01359908
L11 48986U 21060V 21210.91668981 -.01359908 00000-0 -11415+0 0 9996
L22 48986 87.4539 227.5138 0007564 165.8434 256.0740 15.01622511 3623

Live tracking and technical data element details for ONEWEB-0268 (NORAD 48986). ONEWEB-0268 can be tracked NOW for your location showing map with azimuth and elevation plus other details from your city location.

Track the satellite on the map from your city or location and see movement details for azimuth, elevation, latitude, longitude, range, height, and movement on the map or in text.







IsCatalogInMostPopularTable: catalog: 48986, numindb: 3
Update: records affected: 1



GetName: 48986 ONEWEB-0268

Hit Count: updated at: Sat, 31 Jul 2021 15:22:58 GMT